Tracking 34719 objects as of 12-Jul-2026
HD Live streaming from Space Station
objects crossing your sky now

STARLINK-37689

Track STARLINK-37689 now!
10-day predictions
STARLINK-37689 is classified as:


NORAD ID: 69308
Int'l Code: 2026-119N
Perigee: 472.0 km
Apogee: 473.4 km
Inclination: 97.3 °
Period: 93.9 minutes
Semi major axis: 6843 km
RCS: Unknown
Launch date: May 30, 2026
Source: United States (US)
Launch site: AIR FORCE WESTERN TEST RANGE (AFWTR)
Your satellite tracking list
Your tracking list is empty




NASA's NSSDC Master Catalog

Two Line Element Set (TLE):
1 69308U 26119N   26193.54418772  .00011182  00000-0  34813-3 0  9999
2 69308  97.2848 219.2900 0001030 102.1628 257.9730 15.33450098  7944
Source of the keplerian elements: AFSPC